Location: Poughquag
(41.6090°N, 73.6820°W)
Time: 18:56:36
(UTC-05:00)

N. Korean satellite - Visible Passes

Search period start: 18 November 2019 00:00
Search period end: 28 November 2019 00:00
Orbit: 456 x 506 km, 97.2° (Epoch: 18 November)

Date Brightness Start Highest point End Pass type
(mag) Time Alt. Az. Time Alt. Az. Time Alt. Az.
18 Nov 10.1 04:46:44 10° ENE 04:48:36 13° E 04:50:27 10° ESE visible
19 Nov 6.6 05:53:08 10° N 05:56:51 84° WNW 06:00:30 10° SSW visible
19 Nov 10.0 18:03:26 10° SW 18:05:30 15° W 18:07:36 10° WNW visible
20 Nov 7.9 05:27:53 10° NNE 05:31:27 44° E 05:34:56 10° S visible
20 Nov 8.9 17:36:45 10° SSW 17:39:57 29° W 17:43:12 10° NW visible
21 Nov 9.4 05:03:04 10° NE 05:05:57 21° E 05:08:46 10° SE visible
21 Nov 7.2 17:10:53 10° S 17:14:29 63° W 17:18:10 10° NNW visible
22 Nov 10.3 04:39:35 10° ENE 04:40:20 10° E 04:41:05 10° ESE visible
22 Nov 6.8 06:10:27 10° N 06:14:01 48° WNW 06:17:31 10° SSW visible
23 Nov 6.8 05:44:58 10° NNE 05:48:40 76° ESE 05:52:16 10° S visible
23 Nov 9.7 17:54:39 10° SW 17:57:14 18° W 17:59:52 10° NW visible
24 Nov 8.4 05:19:50 10° NNE 05:23:13 34° E 05:26:32 10° SSE visible
24 Nov 8.4 17:28:18 10° SSW 17:31:42 36° W 17:35:10 10° NNW visible
25 Nov 9.7 04:55:13 10° NE 04:57:40 17° E 05:00:05 10° SE visible
25 Nov 6.8 17:02:35 10° S 17:06:15 81° WSW 17:09:59 10° NNW visible
26 Nov 6.6 06:02:12 10° N 06:05:49 62° WNW 06:09:22 10° SSW visible
26 Nov 10.2 18:13:20 10° WSW 18:14:33 11° W 18:15:47 10° WNW visible
27 Nov 7.2 05:36:49 10° NNE 05:40:25 59° E 05:43:58 10° S visible
27 Nov 9.4 17:46:00 10° SSW 17:48:57 23° W 17:51:57 10° NW visible
